Time,TemperatureF,DewpointF,PressureIn,WindDirection,WindDirectionDegrees,WindSpeedMPH,WindSpeedGustMPH,Humidity,HourlyPrecipIn,Conditions,Clouds,dailyrainin,SoftwareType,DateUTC
2013-04-07 00:02:00,67.0,64.3,29.96,SSE,150,5.0,11.0,91,0.00,,---,0.00,VWS V14.01,2013-04-07 05:02:00,
2013-04-07 00:06:00,67.0,64.3,29.95,SE,133,3.0,9.0,91,0.00,,---,0.00,VWS V14.01,2013-04-07 05:06:00,
2013-04-07 00:12:00,67.0,64.3,29.95,SE,129,4.0,9.0,91,0.00,,---,0.00,VWS V14.01,2013-04-07 05:12:00,
2013-04-07 00:17:00,67.0,64.3,29.95,SE,129,3.0,9.0,91,0.00,,---,0.00,VWS V14.01,2013-04-07 05:17:00,
2013-04-07 00:22:00,66.9,64.2,29.95,East,98,5.0,9.0,91,0.00,,---,0.00,VWS V14.01,2013-04-07 05:22:00,
2013-04-07 00:27:00,67.0,64.3,29.95,SE,141,7.0,10.0,91,0.00,,---,0.00,VWS V14.01,2013-04-07 05:27:00,
2013-04-07 00:32:00,67.0,64.3,29.95,East,95,3.0,10.0,91,0.00,,---,0.00,VWS V14.01,2013-04-07 05:32:00,
2013-04-07 00:37:00,67.1,64.4,29.95,East,85,4.0,10.0,91,0.00,,---,0.00,VWS V14.01,2013-04-07 05:37:00,
2013-04-07 00:42:00,67.0,64.0,29.95,ESE,118,3.0,10.0,90,0.00,,---,0.00,VWS V14.01,2013-04-07 05:42:00,
2013-04-07 00:47:00,67.1,64.4,29.96,SE,133,5.0,10.0,91,0.00,,---,0.00,VWS V14.01,2013-04-07 05:47:00,
2013-04-07 00:52:00,67.2,64.5,29.95,SE,141,5.0,10.0,91,0.00,,---,0.00,VWS V14.01,2013-04-07 05:52:00,
2013-04-07 00:57:00,67.3,64.3,29.95,SE,143,4.0,11.0,90,0.00,,---,0.00,VWS V14.01,2013-04-07 05:57:00,
2013-04-07 01:02:00,67.4,64.4,29.95,SE,146,5.0,11.0,90,0.00,,---,0.00,VWS V14.01,2013-04-07 06:02:00,
2013-04-07 01:07:00,67.4,64.4,29.95,SE,128,7.0,7.0,90,0.00,,---,0.00,VWS V14.01,2013-04-07 06:07:00,
2013-04-07 01:14:00,67.4,64.4,29.95,SE,127,6.0,7.0,90,0.00,,---,0.00,VWS V14.01,2013-04-07 06:14:00,
2013-04-07 01:20:00,67.4,64.4,29.95,ENE,62,4.0,9.0,90,0.00,,---,0.00,VWS V14.01,2013-04-07 06:20:00,
2013-04-07 01:25:00,67.4,64.4,29.94,ESE,117,4.0,9.0,90,0.00,,---,0.00,VWS V14.01,2013-04-07 06:25:00,
2013-04-07 01:31:00,67.3,64.3,29.94,SSE,149,8.0,12.0,90,0.00,,---,0.00,VWS V14.01,2013-04-07 06:31:00,
2013-04-07 01:36:00,67.3,64.3,29.94,SSE,160,3.0,12.0,90,0.00,,---,0.00,VWS V14.01,2013-04-07 06:36:00,
2013-04-07 01:42:00,67.3,64.6,29.94,SSE,149,7.0,12.0,91,0.00,,---,0.00,VWS V14.01,2013-04-07 06:42:00,
2013-04-07 01:47:00,67.3,64.6,29.94,SSE,156,5.0,12.0,91,0.00,,---,0.00,VWS V14.01,2013-04-07 06:47:00,
2013-04-07 01:53:00,67.3,64.3,29.93,SSE,153,5.0,12.0,90,0.00,,---,0.00,VWS V14.01,2013-04-07 06:53:00,
2013-04-07 01:59:00,67.3,64.3,29.93,SSE,147,2.0,12.0,90,0.00,,---,0.00,VWS V14.01,2013-04-07 06:59:00,
2013-04-07 02:04:00,67.3,64.3,29.94,SSE,168,6.0,7.0,90,0.00,,---,0.00,VWS V14.01,2013-04-07 07:04:00,
2013-04-07 02:09:00,67.3,64.3,29.93,SE,142,1.0,7.0,90,0.00,,---,0.00,VWS V14.01,2013-04-07 07:09:00,
2013-04-07 02:15:00,67.3,64.3,29.93,SSE,162,5.0,7.0,90,0.00,,---,0.00,VWS V14.01,2013-04-07 07:15:00,
2013-04-07 02:20:00,67.3,64.3,29.93,South,169,4.0,10.0,90,0.00,,---,0.00,VWS V14.01,2013-04-07 07:20:00,
2013-04-07 02:26:00,67.3,64.3,29.93,ESE,117,5.0,10.0,90,0.00,,---,0.00,VWS V14.01,2013-04-07 07:26:00,
2013-04-07 02:31:00,67.3,64.3,29.92,ESE,110,8.0,10.0,90,0.00,,---,0.00,VWS V14.01,2013-04-07 07:31:00,
2013-04-07 02:36:00,67.4,64.4,29.92,SE,132,5.0,10.0,90,0.00,,---,0.00,VWS V14.01,2013-04-07 07:36:00,
2013-04-07 02:42:00,67.4,64.4,29.92,SE,135,7.0,10.0,90,0.00,,---,0.00,VWS V14.01,2013-04-07 07:42:00,
2013-04-07 02:47:00,67.4,64.4,29.92,ESE,122,3.0,10.0,90,0.00,,---,0.00,VWS V14.01,2013-04-07 07:47:00,
2013-04-07 02:52:00,67.4,64.4,29.93,SE,136,2.0,10.0,90,0.00,,---,0.00,VWS V14.01,2013-04-07 07:52:00,
2013-04-07 02:57:00,67.4,64.4,29.93,SE,124,4.0,10.0,90,0.00,,---,0.00,VWS V14.01,2013-04-07 07:57:00,
2013-04-07 03:03:00,67.5,64.5,29.92,SE,133,5.0,10.0,90,0.00,,---,0.00,VWS V14.01,2013-04-07 08:03:00,
2013-04-07 03:08:00,67.4,64.4,29.92,SE,135,3.0,10.0,90,0.00,,---,0.00,VWS V14.01,2013-04-07 08:08:00,
2013-04-07 03:14:00,67.4,64.4,29.91,SE,133,7.0,10.0,90,0.00,,---,0.00,VWS V14.01,2013-04-07 08:14:00,
2013-04-07 03:19:00,67.5,64.5,29.91,South,189,6.0,10.0,90,0.00,,---,0.00,VWS V14.01,2013-04-07 08:19:00,
2013-04-07 03:24:00,67.5,64.2,29.91,SSE,163,5.0,10.0,89,0.00,,---,0.00,VWS V14.01,2013-04-07 08:24:00,
2013-04-07 03:30:00,67.5,64.2,29.91,SE,131,5.0,12.0,89,0.00,,---,0.00,VWS V14.01,2013-04-07 08:30:00,
2013-04-07 03:35:00,67.5,64.2,29.91,SSE,150,10.0,12.0,89,0.00,,---,0.00,VWS V14.01,2013-04-07 08:35:00,
2013-04-07 03:40:00,67.5,64.2,29.90,SSE,161,7.0,12.0,89,0.00,,---,0.00,VWS V14.01,2013-04-07 08:40:00,
2013-04-07 03:45:00,67.4,64.1,29.90,SE,142,6.0,12.0,89,0.00,,---,0.00,VWS V14.01,2013-04-07 08:45:00,
2013-04-07 03:50:00,67.4,64.1,29.90,East,85,5.0,12.0,89,0.00,,---,0.00,VWS V14.01,2013-04-07 08:50:00,
2013-04-07 03:55:00,67.4,64.1,29.90,SE,142,5.0,12.0,89,0.00,,---,0.00,VWS V14.01,2013-04-07 08:55:00,
2013-04-07 04:00:00,67.4,64.1,29.90,SE,125,5.0,12.0,89,0.00,,---,0.00,VWS V14.01,2013-04-07 09:00:00,
2013-04-07 04:05:00,67.4,64.1,29.90,SSE,153,6.0,9.0,89,0.00,,---,0.00,VWS V14.01,2013-04-07 09:05:00,
2013-04-07 04:10:00,67.3,64.3,29.89,SSE,161,5.0,10.0,90,0.00,,---,0.00,VWS V14.01,2013-04-07 09:10:00,
2013-04-07 04:15:00,67.3,64.3,29.89,SSE,166,5.0,10.0,90,0.00,,---,0.00,VWS V14.01,2013-04-07 09:15:00,
2013-04-07 04:20:00,67.3,64.0,29.89,SE,129,5.0,12.0,89,0.00,,---,0.00,VWS V14.01,2013-04-07 09:20:00,
2013-04-07 04:25:00,67.3,64.0,29.89,SSE,160,6.0,12.0,89,0.00,,---,0.00,VWS V14.01,2013-04-07 09:25:00,
2013-04-07 04:30:00,67.3,64.0,29.89,ESE,121,5.0,12.0,89,0.00,,---,0.00,VWS V14.01,2013-04-07 09:30:00,
2013-04-07 04:35:00,67.3,64.0,29.89,SE,146,4.0,12.0,89,0.00,,---,0.00,VWS V14.01,2013-04-07 09:35:00,
2013-04-07 04:40:00,67.3,64.0,29.89,SE,145,4.0,12.0,89,0.00,,---,0.00,VWS V14.01,2013-04-07 09:40:00,
2013-04-07 04:45:00,67.2,63.8,29.89,East,98,7.0,12.0,89,0.00,,---,0.00,VWS V14.01,2013-04-07 09:45:00,
2013-04-07 04:51:00,67.2,64.2,29.89,SSE,155,5.0,12.0,90,0.00,,---,0.00,VWS V14.01,2013-04-07 09:51:00,
2013-04-07 04:56:00,67.1,64.1,29.89,East,93,4.0,12.0,90,0.00,,---,0.00,VWS V14.01,2013-04-07 09:56:00,
2013-04-07 05:01:00,67.1,64.1,29.89,SE,139,2.0,12.0,90,0.00,,---,0.00,VWS V14.01,2013-04-07 10:01:00,
2013-04-07 05:06:00,67.1,64.1,29.89,SE,129,5.0,11.0,90,0.00,,---,0.00,VWS V14.01,2013-04-07 10:06:00,
2013-04-07 05:11:00,67.2,64.2,29.89,SSE,167,2.0,11.0,90,0.00,,---,0.00,VWS V14.01,2013-04-07 10:11:00,
2013-04-07 05:16:00,67.2,64.2,29.89,SSE,153,4.0,11.0,90,0.00,,---,0.00,VWS V14.01,2013-04-07 10:16:00,
2013-04-07 05:21:00,67.2,64.2,29.89,SE,125,2.0,11.0,90,0.00,,---,0.00,VWS V14.01,2013-04-07 10:21:00,
2013-04-07 05:26:00,67.1,64.1,29.89,SE,143,5.0,11.0,90,0.00,,---,0.00,VWS V14.01,2013-04-07 10:26:00,
2013-04-07 05:31:00,67.1,64.1,29.89,SSE,156,7.0,11.0,90,0.00,,---,0.00,VWS V14.01,2013-04-07 10:31:00,
2013-04-07 05:36:00,67.2,64.2,29.89,SSE,158,10.0,11.0,90,0.00,,---,0.00,VWS V14.01,2013-04-07 10:36:00,
2013-04-07 05:41:00,67.2,64.2,29.90,SSW,201,6.0,11.0,90,0.00,,---,0.00,VWS V14.01,2013-04-07 10:41:00,
2013-04-07 05:46:00,67.2,64.2,29.90,ENE,70,3.0,11.0,90,0.00,,---,0.00,VWS V14.01,2013-04-07 10:46:00,
2013-04-07 05:51:00,67.2,64.2,29.89,ESE,118,5.0,11.0,90,0.00,,---,0.00,VWS V14.01,2013-04-07 10:51:00,
2013-04-07 05:57:00,67.2,64.2,29.89,SSE,159,2.0,11.0,90,0.00,,---,0.00,VWS V14.01,2013-04-07 10:57:00,
2013-04-07 06:02:00,67.3,64.6,29.90,SE,127,4.0,11.0,91,0.00,,---,0.00,VWS V14.01,2013-04-07 11:02:00,
2013-04-07 06:07:00,67.3,64.6,29.90,SE,133,4.0,9.0,91,0.00,,---,0.00,VWS V14.01,2013-04-07 11:07:00,
2013-04-07 06:12:00,67.3,64.6,29.90,SE,124,3.0,9.0,91,0.00,,---,0.00,VWS V14.01,2013-04-07 11:12:00,
2013-04-07 06:17:00,67.3,64.6,29.90,ESE,116,3.0,9.0,91,0.00,,---,0.00,VWS V14.01,2013-04-07 11:17:00,
2013-04-07 06:22:00,67.3,64.6,29.90,East,100,6.0,9.0,91,0.00,,---,0.00,VWS V14.01,2013-04-07 11:22:00,
2013-04-07 06:27:00,67.2,64.5,29.90,ESE,115,2.0,9.0,91,0.00,,---,0.00,VWS V14.01,2013-04-07 11:27:00,
2013-04-07 06:32:00,67.1,64.4,29.90,SSE,159,2.0,9.0,91,0.00,,---,0.00,VWS V14.01,2013-04-07 11:32:00,
2013-04-07 06:37:00,67.1,64.4,29.90,SE,146,2.0,9.0,91,0.00,,---,0.00,VWS V14.01,2013-04-07 11:37:00,
2013-04-07 06:42:00,67.1,64.4,29.90,SE,146,3.0,9.0,91,0.00,,---,0.00,VWS V14.01,2013-04-07 11:42:00,
2013-04-07 06:47:00,67.0,64.3,29.90,South,173,1.0,9.0,91,0.00,,---,0.00,VWS V14.01,2013-04-07 11:47:00,
2013-04-07 06:52:00,67.0,64.6,29.90,SE,134,2.0,9.0,92,0.00,,---,0.00,VWS V14.01,2013-04-07 11:52:00,
2013-04-07 06:58:00,67.0,64.6,29.91,SE,129,1.0,9.0,92,0.00,,---,0.00,VWS V14.01,2013-04-07 11:58:00,
2013-04-07 07:03:00,66.9,64.5,29.91,East,94,2.0,3.0,92,0.00,,---,0.00,VWS V14.01,2013-04-07 12:03:00,
2013-04-07 07:08:00,66.8,64.4,29.91,SE,139,4.0,5.0,92,0.00,,---,0.00,VWS V14.01,2013-04-07 12:08:00,
2013-04-07 07:13:00,66.8,64.4,29.91,SSE,159,6.0,6.0,92,0.00,,---,0.00,VWS V14.01,2013-04-07 12:13:00,
2013-04-07 07:18:00,66.7,64.3,29.91,SE,146,2.0,6.0,92,0.00,,---,0.00,VWS V14.01,2013-04-07 12:18:00,
2013-04-07 07:23:00,66.7,64.3,29.91,SE,139,2.0,7.0,92,0.00,,---,0.00,VWS V14.01,2013-04-07 12:23:00,
2013-04-07 07:28:00,66.9,64.5,29.91,SSE,149,2.0,7.0,92,0.00,,---,0.00,VWS V14.01,2013-04-07 12:28:00,
2013-04-07 07:33:00,67.1,64.7,29.92,SSE,149,3.0,7.0,92,0.00,,---,0.00,VWS V14.01,2013-04-07 12:33:00,
2013-04-07 07:38:00,67.1,64.7,29.92,SSE,153,1.0,7.0,92,0.00,,---,0.00,VWS V14.01,2013-04-07 12:38:00,
2013-04-07 07:43:00,67.2,64.8,29.92,SSE,155,4.0,7.0,92,0.00,,---,0.00,VWS V14.01,2013-04-07 12:43:00,
2013-04-07 07:48:00,67.4,65.0,29.92,SSE,155,1.0,7.0,92,0.00,,---,0.00,VWS V14.01,2013-04-07 12:48:00,
2013-04-07 07:53:00,67.5,65.1,29.92,ESE,110,4.0,7.0,92,0.00,,---,0.00,VWS V14.01,2013-04-07 12:53:00,
2013-04-07 07:58:00,67.8,65.1,29.92,SE,130,4.0,7.0,91,0.00,,---,0.00,VWS V14.01,2013-04-07 12:58:00,
2013-04-07 08:03:00,68.1,65.4,29.93,SE,131,6.0,7.0,91,0.00,,---,0.00,VWS V14.01,2013-04-07 13:03:00,
2013-04-07 08:08:00,68.5,65.5,29.93,ESE,109,5.0,10.0,90,0.00,,---,0.00,VWS V14.01,2013-04-07 13:08:00,
2013-04-07 08:13:00,68.6,65.6,29.93,ESE,104,5.0,10.0,90,0.00,,---,0.00,VWS V14.01,2013-04-07 13:13:00,
2013-04-07 08:18:00,68.7,65.3,29.93,ESE,122,7.0,10.0,89,0.00,,---,0.00,VWS V14.01,2013-04-07 13:18:00,
2013-04-07 08:23:00,68.8,65.4,29.93,ESE,120,4.0,10.0,89,0.00,,---,0.00,VWS V14.01,2013-04-07 13:23:00,
2013-04-07 08:28:00,68.7,65.3,29.93,SE,143,4.0,10.0,89,0.00,,---,0.00,VWS V14.01,2013-04-07 13:28:00,
2013-04-07 08:33:00,68.8,65.4,29.93,East,99,2.0,10.0,89,0.00,,---,0.00,VWS V14.01,2013-04-07 13:33:00,
2013-04-07 08:38:00,68.9,65.5,29.94,ESE,122,8.0,10.0,89,0.00,,---,0.00,VWS V14.01,2013-04-07 13:38:00,
2013-04-07 08:43:00,69.0,65.6,29.94,ESE,116,5.0,10.0,89,0.00,,---,0.00,VWS V14.01,2013-04-07 13:43:00,
2013-04-07 08:48:00,69.2,65.5,29.94,ESE,117,5.0,10.0,88,0.00,,---,0.00,VWS V14.01,2013-04-07 13:48:00,
2013-04-07 08:53:00,69.5,65.8,29.94,ENE,73,4.0,10.0,88,0.00,,---,0.00,VWS V14.01,2013-04-07 13:53:00,
2013-04-07 08:58:00,69.9,65.9,29.94,ESE,105,7.0,10.0,87,0.00,,---,0.00,VWS V14.01,2013-04-07 13:58:00,
2013-04-07 09:03:00,70.2,66.2,29.95,ESE,117,7.0,7.0,87,0.00,,---,0.00,VWS V14.01,2013-04-07 14:03:00,
2013-04-07 09:08:00,70.5,66.1,29.95,ESE,121,4.0,10.0,86,0.00,,---,0.00,VWS V14.01,2013-04-07 14:08:00,
2013-04-07 09:13:00,70.7,66.0,29.95,SE,129,6.0,11.0,85,0.00,,---,0.00,VWS V14.01,2013-04-07 14:13:00,
2013-04-07 09:18:00,70.7,66.0,29.95,SE,137,3.0,11.0,85,0.00,,---,0.00,VWS V14.01,2013-04-07 14:18:00,
2013-04-07 09:23:00,70.8,66.1,29.96,SSE,148,6.0,11.0,85,0.00,,---,0.00,VWS V14.01,2013-04-07 14:23:00,
2013-04-07 09:28:00,71.0,66.3,29.95,SE,131,6.0,11.0,85,0.00,,---,0.00,VWS V14.01,2013-04-07 14:28:00,
2013-04-07 09:33:00,71.3,66.2,29.95,ESE,120,6.0,11.0,84,0.00,,---,0.00,VWS V14.01,2013-04-07 14:33:00,
2013-04-07 09:38:00,71.5,66.4,29.96,ESE,122,8.0,11.0,84,0.00,,---,0.00,VWS V14.01,2013-04-07 14:38:00,
2013-04-07 09:43:00,72.0,66.6,29.96,SE,129,3.0,11.0,83,0.00,,---,0.00,VWS V14.01,2013-04-07 14:43:00,
2013-04-07 09:48:00,72.3,66.8,29.96,SE,139,6.0,11.0,83,0.00,,---,0.00,VWS V14.01,2013-04-07 14:48:00,
2013-04-07 09:53:00,72.5,66.3,29.96,SE,129,5.0,11.0,81,0.00,,---,0.00,VWS V14.01,2013-04-07 14:53:00,
2013-04-07 09:58:00,72.4,66.2,29.96,East,93,8.0,11.0,81,0.00,,---,0.00,VWS V14.01,2013-04-07 14:58:00,
2013-04-07 10:04:00,72.5,66.3,29.97,SE,130,4.0,10.0,81,0.00,,---,0.00,VWS V14.01,2013-04-07 15:04:00,
2013-04-07 10:09:00,73.0,66.8,29.97,ESE,104,2.0,11.0,81,0.00,,---,0.00,VWS V14.01,2013-04-07 15:09:00,
2013-04-07 10:14:00,73.6,67.4,29.97,ESE,108,9.0,11.0,81,0.00,,---,0.00,VWS V14.01,2013-04-07 15:14:00,
2013-04-07 10:19:00,73.7,66.8,29.97,ESE,115,9.0,11.0,79,0.00,,---,0.00,VWS V14.01,2013-04-07 15:19:00,
2013-04-07 10:24:00,73.7,66.4,29.97,ESE,106,4.0,11.0,78,0.00,,---,0.00,VWS V14.01,2013-04-07 15:24:00,
2013-04-07 10:29:00,73.4,66.5,29.97,SE,132,4.0,11.0,79,0.00,,---,0.00,VWS V14.01,2013-04-07 15:29:00,
2013-04-07 10:34:00,73.7,66.8,29.98,ENE,65,8.0,11.0,79,0.00,,---,0.00,VWS V14.01,2013-04-07 15:34:00,
2013-04-07 10:39:00,73.4,66.5,29.97,SE,142,9.0,11.0,79,0.00,,---,0.00,VWS V14.01,2013-04-07 15:39:00,
2013-04-07 10:44:00,73.6,66.7,29.98,ESE,117,5.0,12.0,79,0.00,,---,0.00,VWS V14.01,2013-04-07 15:44:00,
2013-04-07 10:49:00,73.8,66.9,29.98,SSE,154,5.0,12.0,79,0.00,,---,0.00,VWS V14.01,2013-04-07 15:49:00,
2013-04-07 10:54:00,73.5,65.9,29.98,SE,124,10.0,12.0,77,0.00,,---,0.00,VWS V14.01,2013-04-07 15:54:00,
2013-04-07 10:59:00,73.5,66.6,29.98,SE,135,4.0,12.0,79,0.00,,---,0.00,VWS V14.01,2013-04-07 15:59:00,
2013-04-07 11:04:00,73.8,66.5,29.98,SSE,159,4.0,10.0,78,0.00,,---,0.00,VWS V14.01,2013-04-07 16:04:00,
2013-04-07 11:09:00,73.7,66.1,29.98,SSE,155,4.0,11.0,77,0.00,,---,0.00,VWS V14.01,2013-04-07 16:09:00,
2013-04-07 11:15:00,74.0,66.3,29.98,ESE,107,13.0,13.0,77,0.00,,---,0.00,VWS V14.01,2013-04-07 16:15:00,
2013-04-07 11:20:00,74.2,66.2,29.98,ESE,104,11.0,14.0,76,0.00,,---,0.00,VWS V14.01,2013-04-07 16:20:00,
2013-04-07 11:25:00,74.5,66.1,29.98,ESE,115,6.0,14.0,75,0.00,,---,0.00,VWS V14.01,2013-04-07 16:25:00,
2013-04-07 11:30:00,74.2,65.8,29.98,ESE,113,6.0,14.0,75,0.00,,---,0.00,VWS V14.01,2013-04-07 16:30:00,
2013-04-07 11:35:00,74.0,66.3,29.98,ESE,102,5.0,14.0,77,0.00,,---,0.00,VWS V14.01,2013-04-07 16:35:00,
2013-04-07 11:40:00,74.4,66.7,29.98,ESE,117,6.0,14.0,77,0.00,,---,0.00,VWS V14.01,2013-04-07 16:40:00,
2013-04-07 11:45:00,74.8,67.1,29.98,SE,129,4.0,14.0,77,0.00,,---,0.00,VWS V14.01,2013-04-07 16:45:00,
2013-04-07 11:50:00,74.6,66.2,29.98,ESE,105,7.0,14.0,75,0.00,,---,0.00,VWS V14.01,2013-04-07 16:50:00,
2013-04-07 11:55:00,74.1,66.4,29.98,SE,132,13.0,14.0,77,0.00,,---,0.00,VWS V14.01,2013-04-07 16:55:00,
2013-04-07 12:00:00,74.2,66.2,29.97,ESE,103,8.0,14.0,76,0.00,,---,0.00,VWS V14.01,2013-04-07 17:00:00,
2013-04-07 12:05:00,74.5,66.4,29.97,East,94,8.0,12.0,76,0.00,,---,0.00,VWS V14.01,2013-04-07 17:05:00,
2013-04-07 12:10:00,74.7,66.6,29.97,SSE,148,11.0,16.0,76,0.00,,---,0.00,VWS V14.01,2013-04-07 17:10:00,
2013-04-07 12:15:00,74.6,66.2,29.97,SSE,156,9.0,16.0,75,0.00,,---,0.00,VWS V14.01,2013-04-07 17:15:00,
2013-04-07 12:20:00,74.8,66.7,29.97,SE,134,8.0,16.0,76,0.00,,---,0.00,VWS V14.01,2013-04-07 17:20:00,
2013-04-07 12:25:00,74.7,66.6,29.96,SE,140,8.0,16.0,76,0.00,,---,0.00,VWS V14.01,2013-04-07 17:25:00,
2013-04-07 12:30:00,75.0,66.6,29.96,East,93,8.0,16.0,75,0.00,,---,0.00,VWS V14.01,2013-04-07 17:30:00,
2013-04-07 12:35:00,74.8,66.3,29.96,ESE,108,9.0,16.0,75,0.00,,---,0.00,VWS V14.01,2013-04-07 17:35:00,
2013-04-07 12:40:00,74.8,66.0,29.95,SE,138,14.0,16.0,74,0.00,,---,0.00,VWS V14.01,2013-04-07 17:40:00,
2013-04-07 12:45:00,74.5,65.7,29.95,East,96,9.0,17.0,74,0.00,,---,0.00,VWS V14.01,2013-04-07 17:45:00,
2013-04-07 12:50:00,74.3,66.2,29.95,SE,125,7.0,17.0,76,0.00,,---,0.00,VWS V14.01,2013-04-07 17:50:00,
2013-04-07 12:55:00,74.2,66.2,29.95,ESE,122,6.0,17.0,76,0.00,,---,0.00,VWS V14.01,2013-04-07 17:55:00,
2013-04-07 13:00:00,74.8,66.3,29.95,South,178,6.0,17.0,75,0.00,,---,0.00,VWS V14.01,2013-04-07 18:00:00,
2013-04-07 13:05:00,74.6,65.8,29.95,SSE,148,11.0,19.0,74,0.00,,---,0.00,VWS V14.01,2013-04-07 18:05:00,
2013-04-07 13:10:00,74.6,66.9,29.94,SSE,147,6.0,19.0,77,0.00,,---,0.00,VWS V14.01,2013-04-07 18:10:00,
2013-04-07 13:15:00,74.6,66.9,29.94,SSE,149,8.0,19.0,77,0.00,,---,0.00,VWS V14.01,2013-04-07 18:15:00,
2013-04-07 13:20:00,74.4,66.3,29.94,SE,125,10.0,19.0,76,0.00,,---,0.00,VWS V14.01,2013-04-07 18:20:00,
2013-04-07 13:25:00,74.5,66.1,29.94,ESE,118,15.0,19.0,75,0.00,,---,0.00,VWS V14.01,2013-04-07 18:25:00,
2013-04-07 13:30:00,74.4,66.0,29.93,SE,134,4.0,19.0,75,0.00,,---,0.00,VWS V14.01,2013-04-07 18:30:00,
2013-04-07 13:36:00,74.6,66.5,29.93,East,94,5.0,19.0,76,0.00,,---,0.00,VWS V14.01,2013-04-07 18:36:00,
2013-04-07 13:41:00,74.6,66.2,29.93,East,96,11.0,19.0,75,0.00,,---,0.00,VWS V14.01,2013-04-07 18:41:00,
2013-04-07 13:46:00,75.0,66.6,29.93,ESE,120,11.0,19.0,75,0.00,,---,0.00,VWS V14.01,2013-04-07 18:46:00,
2013-04-07 13:51:00,75.0,66.6,29.92,SE,143,5.0,19.0,75,0.00,,---,0.00,VWS V14.01,2013-04-07 18:51:00,
2013-04-07 13:56:00,74.6,66.2,29.92,ESE,115,11.0,19.0,75,0.00,,---,0.00,VWS V14.01,2013-04-07 18:56:00,
2013-04-07 14:01:00,74.7,66.6,29.92,SSE,152,10.0,19.0,76,0.00,,---,0.00,VWS V14.01,2013-04-07 19:01:00,
2013-04-07 14:06:00,74.6,66.5,29.92,ENE,72,8.0,13.0,76,0.00,,---,0.00,VWS V14.01,2013-04-07 19:06:00,
2013-04-07 14:11:00,74.5,66.4,29.92,SSE,148,5.0,16.0,76,0.00,,---,0.00,VWS V14.01,2013-04-07 19:11:00,
2013-04-07 14:16:00,74.4,66.3,29.92,SE,133,6.0,18.0,76,0.00,,---,0.00,VWS V14.01,2013-04-07 19:16:00,
2013-04-07 14:21:00,74.7,66.6,29.91,East,97,6.0,18.0,76,0.00,,---,0.00,VWS V14.01,2013-04-07 19:21:00,
2013-04-07 14:26:00,74.5,65.7,29.91,SE,146,9.0,18.0,74,0.00,,---,0.00,VWS V14.01,2013-04-07 19:26:00,
2013-04-07 14:31:00,74.5,66.1,29.91,East,88,16.0,19.0,75,0.00,,---,0.00,VWS V14.01,2013-04-07 19:31:00,
2013-04-07 14:36:00,74.4,65.6,29.91,SSE,151,10.0,19.0,74,0.00,,---,0.00,VWS V14.01,2013-04-07 19:36:00,
2013-04-07 14:41:00,74.2,65.4,29.90,SE,127,9.0,19.0,74,0.00,,---,0.00,VWS V14.01,2013-04-07 19:41:00,
2013-04-07 14:46:00,74.5,66.4,29.90,SE,145,7.0,19.0,76,0.00,,---,0.00,VWS V14.01,2013-04-07 19:46:00,
2013-04-07 14:52:00,74.7,66.3,29.90,SE,139,10.0,19.0,75,0.00,,---,0.00,VWS V14.01,2013-04-07 19:52:00,
2013-04-07 14:57:00,75.1,66.2,29.90,South,181,7.0,19.0,74,0.00,,---,0.00,VWS V14.01,2013-04-07 19:57:00,
2013-04-07 15:01:00,74.8,65.6,29.90,East,93,7.0,19.0,73,0.00,,---,0.00,VWS V14.01,2013-04-07 20:01:00,
2013-04-07 15:07:00,74.6,66.2,29.89,SE,130,7.0,17.0,75,0.00,,---,0.00,VWS V14.01,2013-04-07 20:07:00,
2013-04-07 15:12:00,74.8,66.3,29.89,SSE,152,3.0,17.0,75,0.00,,---,0.00,VWS V14.01,2013-04-07 20:12:00,
2013-04-07 15:17:00,74.9,66.8,29.89,ESE,122,13.0,17.0,76,0.00,,---,0.00,VWS V14.01,2013-04-07 20:17:00,
2013-04-07 15:22:00,74.4,65.6,29.89,SE,143,10.0,21.0,74,0.00,,---,0.00,VWS V14.01,2013-04-07 20:22:00,
2013-04-07 15:27:00,73.9,65.5,29.89,ESE,111,14.0,21.0,75,0.00,,---,0.00,VWS V14.01,2013-04-07 20:27:00,
2013-04-07 15:32:00,73.7,66.1,29.89,SE,133,10.0,21.0,77,0.00,,---,0.00,VWS V14.01,2013-04-07 20:32:00,
2013-04-07 15:37:00,73.5,66.2,29.89,ESE,110,16.0,21.0,78,0.00,,---,0.00,VWS V14.01,2013-04-07 20:37:00,
2013-04-07 15:42:00,73.5,66.2,29.89,SE,134,17.0,21.0,78,0.00,,---,0.00,VWS V14.01,2013-04-07 20:42:00,
2013-04-07 15:47:00,73.1,65.5,29.89,SE,129,12.0,22.0,77,0.00,,---,0.00,VWS V14.01,2013-04-07 20:47:00,
2013-04-07 15:52:00,73.2,65.9,29.88,East,86,11.0,22.0,78,0.00,,---,0.00,VWS V14.01,2013-04-07 20:52:00,
2013-04-07 15:57:00,73.7,66.8,29.88,ESE,115,11.0,22.0,79,0.00,,---,0.00,VWS V14.01,2013-04-07 20:57:00,
2013-04-07 16:02:00,73.9,66.2,29.88,ESE,115,5.0,22.0,77,0.00,,---,0.00,VWS V14.01,2013-04-07 21:02:00,
2013-04-07 16:07:00,73.7,66.4,29.88,ESE,111,12.0,18.0,78,0.00,,---,0.00,VWS V14.01,2013-04-07 21:07:00,
2013-04-07 16:12:00,73.9,66.6,29.88,SSE,167,11.0,18.0,78,0.00,,---,0.00,VWS V14.01,2013-04-07 21:12:00,
2013-04-07 16:17:00,73.5,65.9,29.88,SE,138,11.0,18.0,77,0.00,,---,0.00,VWS V14.01,2013-04-07 21:17:00,
2013-04-07 16:22:00,73.1,65.8,29.88,ESE,122,12.0,18.0,78,0.00,,---,0.00,VWS V14.01,2013-04-07 21:22:00,
2013-04-07 16:27:00,72.9,65.7,29.88,ESE,115,5.0,18.0,78,0.00,,---,0.00,VWS V14.01,2013-04-07 21:27:00,
2013-04-07 16:32:00,72.8,65.9,29.88,SE,127,13.0,18.0,79,0.00,,---,0.00,VWS V14.01,2013-04-07 21:32:00,
2013-04-07 16:37:00,72.7,65.4,29.88,ESE,120,16.0,18.0,78,0.00,,---,0.00,VWS V14.01,2013-04-07 21:37:00,
2013-04-07 16:42:00,72.7,66.2,29.87,ESE,119,11.0,18.0,80,0.00,,---,0.00,VWS V14.01,2013-04-07 21:42:00,
2013-04-07 16:47:00,72.9,66.4,29.87,East,91,4.0,18.0,80,0.00,,---,0.00,VWS V14.01,2013-04-07 21:47:00,
2013-04-07 16:52:00,72.7,65.8,29.87,SSE,153,14.0,18.0,79,0.00,,---,0.00,VWS V14.01,2013-04-07 21:52:00,
2013-04-07 16:57:00,72.6,65.7,29.87,SE,124,10.0,18.0,79,0.00,,---,0.00,VWS V14.01,2013-04-07 21:57:00,
2013-04-07 17:02:00,72.3,65.4,29.87,ESE,109,12.0,18.0,79,0.00,,---,0.00,VWS V14.01,2013-04-07 22:02:00,
2013-04-07 17:07:00,72.2,65.7,29.87,ESE,115,16.0,18.0,80,0.00,,---,0.00,VWS V14.01,2013-04-07 22:07:00,
2013-04-07 17:12:00,72.1,65.6,29.86,ESE,110,11.0,18.0,80,0.00,,---,0.00,VWS V14.01,2013-04-07 22:12:00,
2013-04-07 17:17:00,72.4,65.9,29.86,SE,136,9.0,18.0,80,0.00,,---,0.00,VWS V14.01,2013-04-07 22:17:00,
2013-04-07 17:22:00,72.4,65.5,29.86,ESE,115,16.0,18.0,79,0.00,,---,0.00,VWS V14.01,2013-04-07 22:22:00,
2013-04-07 17:28:00,72.3,65.4,29.86,SE,140,13.0,18.0,79,0.00,,---,0.00,VWS V14.01,2013-04-07 22:28:00,
2013-04-07 17:33:00,72.0,65.5,29.86,ESE,115,14.0,18.0,80,0.00,,---,0.00,VWS V14.01,2013-04-07 22:33:00,
2013-04-07 17:38:00,71.7,65.9,29.86,ESE,106,9.0,18.0,82,0.00,,---,0.00,VWS V14.01,2013-04-07 22:38:00,
2013-04-07 17:43:00,71.5,66.1,29.86,ESE,121,6.0,18.0,83,0.00,,---,0.00,VWS V14.01,2013-04-07 22:43:00,
2013-04-07 17:49:00,71.4,66.0,29.87,ESE,110,5.0,18.0,83,0.00,,---,0.00,VWS V14.01,2013-04-07 22:49:00,
2013-04-07 17:54:00,71.3,65.9,29.87,ESE,122,8.0,18.0,83,0.00,,---,0.00,VWS V14.01,2013-04-07 22:54:00,
2013-04-07 17:59:00,71.3,66.2,29.87,SE,139,9.0,18.0,84,0.00,,---,0.00,VWS V14.01,2013-04-07 22:59:00,
2013-04-07 18:04:00,71.4,66.0,29.87,ESE,117,14.0,14.0,83,0.00,,---,0.00,VWS V14.01,2013-04-07 23:04:00,
2013-04-07 18:09:00,71.6,66.5,29.87,East,99,7.0,15.0,84,0.00,,---,0.00,VWS V14.01,2013-04-07 23:09:00,
2013-04-07 18:14:00,71.7,65.9,29.86,ESE,112,7.0,15.0,82,0.00,,---,0.00,VWS V14.01,2013-04-07 23:14:00,
2013-04-07 18:19:00,71.6,66.2,29.86,SE,133,13.0,15.0,83,0.00,,---,0.00,VWS V14.01,2013-04-07 23:19:00,
2013-04-07 18:24:00,71.2,66.1,29.86,ESE,117,8.0,15.0,84,0.00,,---,0.00,VWS V14.01,2013-04-07 23:24:00,
2013-04-07 18:29:00,71.3,66.2,29.86,SE,143,6.0,15.0,84,0.00,,---,0.00,VWS V14.01,2013-04-07 23:29:00,
2013-04-07 18:34:00,71.2,66.1,29.86,SSE,150,10.0,15.0,84,0.00,,---,0.00,VWS V14.01,2013-04-07 23:34:00,
2013-04-07 18:39:00,71.3,66.2,29.86,SE,129,11.0,15.0,84,0.00,,---,0.00,VWS V14.01,2013-04-07 23:39:00,
2013-04-07 18:44:00,71.4,66.3,29.86,ESE,118,5.0,15.0,84,0.00,,---,0.00,VWS V14.01,2013-04-07 23:44:00,
2013-04-07 18:49:00,71.2,66.1,29.86,ESE,112,10.0,15.0,84,0.00,,---,0.00,VWS V14.01,2013-04-07 23:49:00,
2013-04-07 18:57:00,71.1,66.0,29.85,ESE,116,12.0,15.0,84,0.00,,---,0.00,VWS V14.01,2013-04-07 23:57:00,
2013-04-07 19:02:00,70.7,66.0,29.85,ESE,112,11.0,16.0,85,0.00,,---,0.00,VWS V14.01,2013-04-08 00:02:00,
2013-04-07 19:07:00,70.7,66.3,29.86,SE,129,11.0,13.0,86,0.00,,---,0.00,VWS V14.01,2013-04-08 00:07:00,
2013-04-07 19:12:00,70.5,66.1,29.86,SE,132,8.0,13.0,86,0.00,,---,0.00,VWS V14.01,2013-04-08 00:12:00,
2013-04-07 19:17:00,70.4,66.0,29.85,SSE,165,9.0,15.0,86,0.00,,---,0.00,VWS V14.01,2013-04-08 00:17:00,
2013-04-07 19:22:00,70.3,66.2,29.85,ESE,118,5.0,15.0,87,0.00,,---,0.00,VWS V14.01,2013-04-08 00:22:00,
2013-04-07 19:27:00,70.1,66.1,29.85,ESE,116,3.0,15.0,87,0.00,,---,0.00,VWS V14.01,2013-04-08 00:27:00,
2013-04-07 19:32:00,70.0,66.3,29.85,SSE,148,6.0,15.0,88,0.00,,---,0.00,VWS V14.01,2013-04-08 00:32:00,
2013-04-07 19:37:00,69.8,66.1,29.85,SE,126,11.0,15.0,88,0.00,,---,0.00,VWS V14.01,2013-04-08 00:37:00,
2013-04-07 19:42:00,69.7,66.0,29.85,ESE,109,12.0,15.0,88,0.00,,---,0.00,VWS V14.01,2013-04-08 00:42:00,
2013-04-07 19:47:00,69.6,66.2,29.85,SE,125,10.0,15.0,89,0.00,,---,0.00,VWS V14.01,2013-04-08 00:47:00,
2013-04-07 19:52:00,69.5,66.1,29.85,SE,129,6.0,15.0,89,0.00,,---,0.00,VWS V14.01,2013-04-08 00:52:00,
2013-04-07 19:58:00,69.5,66.1,29.85,ESE,120,5.0,15.0,89,0.00,,---,0.00,VWS V14.01,2013-04-08 00:58:00,
2013-04-07 20:03:00,69.5,66.1,29.85,East,94,9.0,12.0,89,0.00,,---,0.00,VWS V14.01,2013-04-08 01:03:00,
2013-04-07 20:08:00,69.4,66.0,29.85,SE,129,7.0,13.0,89,0.00,,---,0.00,VWS V14.01,2013-04-08 01:08:00,
2013-04-07 20:13:00,69.5,66.1,29.85,SE,141,8.0,13.0,89,0.00,,---,0.00,VWS V14.01,2013-04-08 01:13:00,
2013-04-07 20:18:00,69.5,66.4,29.86,ESE,103,10.0,13.0,90,0.00,,---,0.00,VWS V14.01,2013-04-08 01:18:00,
2013-04-07 20:23:00,69.4,66.3,29.86,ESE,121,13.0,14.0,90,0.00,,---,0.00,VWS V14.01,2013-04-08 01:23:00,
2013-04-07 20:28:00,69.4,66.3,29.86,ESE,108,7.0,14.0,90,0.00,,---,0.00,VWS V14.01,2013-04-08 01:28:00,
2013-04-07 20:33:00,69.4,66.3,29.86,East,99,12.0,15.0,90,0.00,,---,0.00,VWS V14.01,2013-04-08 01:33:00,
2013-04-07 20:38:00,69.4,66.3,29.86,SSE,157,8.0,15.0,90,0.00,,---,0.00,VWS V14.01,2013-04-08 01:38:00,
2013-04-07 20:43:00,69.3,66.6,29.86,SE,130,10.0,15.0,91,0.00,,---,0.00,VWS V14.01,2013-04-08 01:43:00,
2013-04-07 20:48:00,69.3,66.6,29.86,ESE,123,4.0,15.0,91,0.00,,---,0.00,VWS V14.01,2013-04-08 01:48:00,
2013-04-07 20:53:00,69.2,66.5,29.86,ENE,70,4.0,15.0,91,0.00,,---,0.00,VWS V14.01,2013-04-08 01:53:00,
2013-04-07 20:58:00,69.2,66.5,29.87,SE,146,7.0,15.0,91,0.00,,---,0.00,VWS V14.01,2013-04-08 01:58:00,
2013-04-07 21:03:00,69.2,66.5,29.86,East,82,5.0,6.0,91,0.00,,---,0.00,VWS V14.01,2013-04-08 02:03:00,
2013-04-07 21:08:00,69.1,66.4,29.86,SSE,153,5.0,12.0,91,0.00,,---,0.00,VWS V14.01,2013-04-08 02:08:00,
2013-04-07 21:13:00,69.1,66.4,29.86,SSE,167,5.0,12.0,91,0.00,,---,0.00,VWS V14.01,2013-04-08 02:13:00,
2013-04-07 21:18:00,69.1,66.4,29.86,SE,124,8.0,12.0,91,0.00,,---,0.00,VWS V14.01,2013-04-08 02:18:00,
2013-04-07 21:23:00,69.1,66.4,29.86,SE,139,9.0,12.0,91,0.00,,---,0.00,VWS V14.01,2013-04-08 02:23:00,
2013-04-07 21:29:00,69.1,66.7,29.87,SE,145,11.0,13.0,92,0.00,,---,0.00,VWS V14.01,2013-04-08 02:29:00,
2013-04-07 21:34:00,69.0,66.6,29.86,SSE,153,6.0,13.0,92,0.00,,---,0.00,VWS V14.01,2013-04-08 02:34:00,
2013-04-07 21:39:00,69.0,66.6,29.87,East,101,5.0,13.0,92,0.00,,---,0.00,VWS V14.01,2013-04-08 02:39:00,
2013-04-07 21:44:00,68.9,66.5,29.86,ESE,123,5.0,13.0,92,0.00,,---,0.00,VWS V14.01,2013-04-08 02:44:00,
2013-04-07 21:49:00,68.9,66.5,29.86,ESE,113,11.0,13.0,92,0.00,,---,0.00,VWS V14.01,2013-04-08 02:49:00,
2013-04-07 21:54:00,68.9,66.5,29.87,ESE,110,8.0,13.0,92,0.00,,---,0.00,VWS V14.01,2013-04-08 02:54:00,
2013-04-07 21:59:00,68.9,66.5,29.87,SE,145,7.0,13.0,92,0.00,,---,0.00,VWS V14.01,2013-04-08 02:59:00,
2013-04-07 22:04:00,68.9,66.5,29.87,ESE,121,5.0,13.0,92,0.00,,---,0.00,VWS V14.01,2013-04-08 03:04:00,
2013-04-07 22:09:00,68.9,66.5,29.87,SE,138,7.0,14.0,92,0.00,,---,0.00,VWS V14.01,2013-04-08 03:09:00,
2013-04-07 22:14:00,68.9,66.8,29.87,SE,131,5.0,14.0,93,0.00,,---,0.00,VWS V14.01,2013-04-08 03:14:00,
2013-04-07 22:19:00,68.8,66.7,29.87,SSE,157,3.0,14.0,93,0.00,,---,0.00,VWS V14.01,2013-04-08 03:19:00,
2013-04-07 22:24:00,68.8,66.7,29.87,SE,133,9.0,14.0,93,0.00,,---,0.00,VWS V14.01,2013-04-08 03:24:00,
2013-04-07 22:29:00,68.8,66.7,29.87,SE,143,5.0,14.0,93,0.00,,---,0.00,VWS V14.01,2013-04-08 03:29:00,
2013-04-07 22:34:00,68.7,66.6,29.87,East,89,5.0,14.0,93,0.00,,---,0.00,VWS V14.01,2013-04-08 03:34:00,
2013-04-07 22:40:00,68.7,66.6,29.87,SE,130,6.0,14.0,93,0.00,,---,0.00,VWS V14.01,2013-04-08 03:40:00,
2013-04-07 22:45:00,68.7,66.6,29.87,ESE,108,3.0,14.0,93,0.00,,---,0.00,VWS V14.01,2013-04-08 03:45:00,
2013-04-07 22:50:00,68.7,66.6,29.87,SSE,166,5.0,14.0,93,0.00,,---,0.00,VWS V14.01,2013-04-08 03:50:00,
2013-04-07 22:55:00,68.7,66.9,29.87,ESE,110,4.0,14.0,94,0.00,,---,0.00,VWS V14.01,2013-04-08 03:55:00,
2013-04-07 23:00:00,68.7,66.9,29.87,ESE,115,8.0,14.0,94,0.00,,---,0.00,VWS V14.01,2013-04-08 04:00:00,
2013-04-07 23:01:00,68.6,66.8,29.86,ESE,120,5.0,14.0,94,0.00,,---,0.00,VWS V14.01,2013-04-08 04:01:00,
2013-04-07 23:06:00,68.6,66.8,29.86,SE,129,4.0,8.0,94,0.00,,---,0.00,VWS V14.01,2013-04-08 04:06:00,
2013-04-07 23:11:00,68.6,66.8,29.86,ESE,103,10.0,10.0,94,0.00,,---,0.00,VWS V14.01,2013-04-08 04:11:00,
2013-04-07 23:16:00,68.7,66.9,29.86,SSE,164,4.0,11.0,94,0.00,,---,0.00,VWS V14.01,2013-04-08 04:16:00,
2013-04-07 23:21:00,68.7,66.9,29.86,SE,129,7.0,13.0,94,0.00,,---,0.00,VWS V14.01,2013-04-08 04:21:00,
2013-04-07 23:26:00,68.8,67.0,29.85,SSE,150,6.0,13.0,94,0.00,,---,0.00,VWS V14.01,2013-04-08 04:26:00,
2013-04-07 23:31:00,68.8,67.0,29.85,SE,141,7.0,13.0,94,0.00,,---,0.00,VWS V14.01,2013-04-08 04:31:00,
2013-04-07 23:36:00,68.8,67.0,29.86,SE,133,5.0,13.0,94,0.00,,---,0.00,VWS V14.01,2013-04-08 04:36:00,
2013-04-07 23:42:00,68.8,67.0,29.85,NE,56,5.0,13.0,94,0.00,,---,0.00,VWS V14.01,2013-04-08 04:42:00,
2013-04-07 23:47:00,68.8,67.0,29.85,ENE,78,6.0,13.0,94,0.00,,---,0.00,VWS V14.01,2013-04-08 04:47:00,
2013-04-07 23:52:00,68.8,67.0,29.85,ESE,109,7.0,13.0,94,0.00,,---,0.00,VWS V14.01,2013-04-08 04:52:00,
2013-04-07 23:57:00,68.9,67.1,29.85,SSE,153,3.0,13.0,94,0.00,,---,0.00,VWS V14.01,2013-04-08 04:57:00,